Bad Axe, MI

6:16 AM EST on February 26, 2017 (GMT -0500)
Huron County Memorial

Weather History for KBAX - September, 2013

Change the Weather History Date:

Sunday, September 8, 2013

  Actual Average (KP58) Record (KP58)
Temperature  
Mean Temperature 58 °F -  
Max Temperature 68 °F 73 °F 96 °F (2000)
Min Temperature 46 °F 57 °F 52 °F (2013)
Degree Days  
Heating Degree Days 8    
Growing Degree Days 8 (Base 50)    
Moisture  
Dew Point 54 °F    
Average Humidity 75    
Maximum Humidity 98    
Minimum Humidity 52    
Precipitation  
Precipitation 0.00 in - - ()
Sea Level Pressure  
Sea Level Pressure 30.09 in    
Wind  
Wind Speed 8 mph (NE)    
Max Wind Speed 14 mph    
Max Gust Speed 20 mph    
Visibility 9 miles    
Events      
Averages and records for this station are not official NWS values.
T = Trace of Precipitation, MM = Missing Value Source: NWS Daily Summary

Daily Weather History Graph

Daily Weather History Graph

Search for Another Location

Airport or City:

Trip Planner

Search our weather history database for the weather conditions in past years. The results will help you decide how hot, cold, wet, or windy it might be!

Date:

Astronomy

Sep. 08, 2013 Rise Set
Actual Time 7:03 AM EDT 7:54 PM EDT
Civil Twilight 6:34 AM EDT 8:23 PM EDT
Nautical Twilight 5:59 AM EDT 8:58 PM EDT
Astronomical Twilight 5:23 AM EDT 9:34 PM EDT
Moon 10:28 AM EDT (9/8) 9:20 PM EDT (9/8)
Length of Visible Light 13h 49m
Length of Day
12h 50m
Waxing Crescent, 11% of the Moon is Illuminated
Sep 8
Waxing Crescent
Sep 12
First Quarter
Sep 19
Full
Sep 26
Last Quarter
Oct 4
New

Hourly Weather History & Observations

Time (EDT) Temp. Dew Point Humidity Pressure Visibility Wind Dir Wind Speed Gust Speed Precip Events Conditions
12:12 AM 68.0 °F 67.1 °F 97% 29.95 in 4.0 mi North 8.1 mph - N/A   Overcast
12:31 AM 67.3 °F 66.2 °F 96% 29.96 in 3.0 mi North 10.4 mph 16.1 mph N/A   Overcast
12:52 AM 66.4 °F 65.5 °F 97% 29.96 in 3.0 mi North 4.6 mph - N/A   Overcast
1:12 AM 65.8 °F 65.3 °F 98% 29.98 in 2.5 mi NNE 10.4 mph 17.3 mph N/A   Overcast
1:32 AM 65.5 °F 64.8 °F 98% 29.99 in 2.5 mi North 8.1 mph 16.1 mph N/A   Overcast
1:52 AM 65.5 °F 64.9 °F 98% 29.98 in 3.0 mi North 8.1 mph - N/A   Overcast
2:12 AM 65.8 °F 65.3 °F 98% 29.98 in 5.0 mi NNE 8.1 mph - N/A   Overcast
2:32 AM 66.2 °F 65.3 °F 97% 29.98 in 7.0 mi NNE 5.8 mph - N/A   Overcast
2:52 AM 66.2 °F 65.3 °F 97% 29.99 in 7.0 mi NNE 5.8 mph - N/A   Overcast
3:12 AM 66.2 °F 64.8 °F 95% 29.99 in 7.0 mi NNE 9.2 mph 16.1 mph N/A   Overcast
3:32 AM 65.7 °F 64.0 °F 94% 30.00 in 10.0 mi NE 8.1 mph - N/A   Overcast
3:52 AM 65.5 °F 63.5 °F 93% 30.00 in 10.0 mi NE 8.1 mph - N/A   Overcast
4:12 AM 65.5 °F 63.1 °F 92% 30.00 in 10.0 mi NE 10.4 mph 16.1 mph N/A   Overcast
4:32 AM 65.1 °F 61.7 °F 89% 30.01 in 10.0 mi NE 11.5 mph - N/A   Overcast
4:52 AM 64.9 °F 60.8 °F 86% 30.02 in 10.0 mi NE 6.9 mph - N/A   Overcast
5:12 AM 64.6 °F 60.8 °F 88% 30.02 in 10.0 mi NE 8.1 mph - N/A   Overcast
5:32 AM 64.4 °F 60.3 °F 86% 30.03 in 10.0 mi NNE 10.4 mph - N/A   Overcast
5:52 AM 64.0 °F 59.5 °F 85% 30.04 in 10.0 mi NE 10.4 mph 17.3 mph N/A   Overcast
6:12 AM 63.7 °F 55.6 °F 75% 30.06 in 10.0 mi NE 9.2 mph - N/A   Overcast
6:32 AM 62.6 °F 55.4 °F 77% 30.07 in 10.0 mi NE 8.1 mph - N/A   Overcast
6:52 AM 61.7 °F 53.4 °F 74% 30.08 in 10.0 mi NE 9.2 mph - N/A   Scattered Clouds
7:12 AM 61.3 °F 52.7 °F 73% 30.09 in 10.0 mi NE 9.2 mph - N/A   Scattered Clouds
7:32 AM 60.8 °F 52.7 °F 75% 30.09 in 10.0 mi NE 6.9 mph - N/A   Scattered Clouds
7:52 AM 60.8 °F 52.9 °F 75% 30.10 in 10.0 mi NE 8.1 mph - N/A   Scattered Clouds
8:12 AM 61.9 °F 52.3 °F 71% 30.11 in 10.0 mi NE 8.1 mph - N/A   Scattered Clouds
8:32 AM 62.6 °F 52.9 °F 70% 30.12 in 10.0 mi ENE 10.4 mph - N/A   Scattered Clouds
8:52 AM 63.5 °F 52.3 °F 67% 30.12 in 10.0 mi ENE 13.8 mph 18.4 mph N/A   Clear
9:12 AM 63.9 °F 51.8 °F 65% 30.12 in 10.0 mi ENE 10.4 mph 18.4 mph N/A   Clear
9:32 AM 64.4 °F 51.1 °F 62% 30.13 in 10.0 mi ENE 13.8 mph 18.4 mph N/A   Scattered Clouds
9:53 AM 65.3 °F 51.3 °F 60% 30.13 in 10.0 mi ENE 10.4 mph 17.3 mph N/A   Mostly Cloudy
10:12 AM 65.5 °F 51.4 °F 60% 30.14 in 10.0 mi East 10.4 mph 17.3 mph N/A   Mostly Cloudy
10:32 AM 65.1 °F 50.9 °F 60% 30.14 in 10.0 mi ENE 13.8 mph 19.6 mph N/A   Mostly Cloudy
10:53 AM 65.7 °F 50.2 °F 57% 30.15 in 10.0 mi NE 12.7 mph - N/A   Scattered Clouds
11:12 AM 66.4 °F 50.7 °F 57% 30.15 in 10.0 mi NNE 10.4 mph 17.3 mph N/A   Scattered Clouds
11:32 AM 66.0 °F 50.7 °F 58% 30.15 in 10.0 mi NE 10.4 mph 16.1 mph N/A   Scattered Clouds
11:53 AM 66.2 °F 50.0 °F 56% 30.16 in 10.0 mi NE 11.5 mph 17.3 mph N/A   Scattered Clouds
12:12 PM 65.5 °F 49.8 °F 57% 30.16 in 10.0 mi NE 6.9 mph - N/A   Scattered Clouds
12:32 PM 66.4 °F 51.4 °F 59% 30.16 in 10.0 mi NNE 10.4 mph - N/A   Scattered Clouds
12:53 PM 66.9 °F 50.7 °F 56% 30.15 in 10.0 mi NE 9.2 mph - N/A   Clear
1:12 PM 66.9 °F 49.8 °F 54% 30.15 in 10.0 mi NNE 9.2 mph - N/A   Scattered Clouds
1:32 PM 66.9 °F 49.5 °F 53% 30.15 in 10.0 mi NNE 9.2 mph - N/A   Clear
1:52 PM 67.1 °F 49.5 °F 53% 30.15 in 10.0 mi NNE 12.7 mph - N/A   Clear
2:12 PM 66.6 °F 48.6 °F 52% 30.15 in 10.0 mi NE 11.5 mph 16.1 mph N/A   Clear
2:32 PM 67.1 °F 49.3 °F 53% 30.15 in 10.0 mi NE 6.9 mph - N/A   Clear
2:52 PM 67.1 °F 49.5 °F 53% 30.14 in 10.0 mi NE 10.4 mph - N/A   Clear
3:12 PM 66.7 °F 48.7 °F 52% 30.14 in 10.0 mi NE 8.1 mph - N/A   Clear
3:32 PM 66.4 °F 49.5 °F 54% 30.13 in 10.0 mi ENE 6.9 mph 16.1 mph N/A   Clear
3:52 PM 66.2 °F 49.3 °F 54% 30.13 in 10.0 mi NE 9.2 mph - N/A   Clear
4:12 PM 65.5 °F 48.9 °F 55% 30.13 in 10.0 mi ENE 11.5 mph 17.3 mph N/A   Clear
4:33 PM 64.9 °F 48.4 °F 55% 30.12 in 10.0 mi NE 12.7 mph 18.4 mph N/A   Clear
4:52 PM 64.4 °F 48.6 °F 56% 30.13 in 10.0 mi NE 10.4 mph 17.3 mph N/A   Clear
5:12 PM 64.0 °F 49.1 °F 58% 30.12 in 10.0 mi NE 9.2 mph - N/A   Clear
5:32 PM 64.2 °F 49.6 °F 59% 30.11 in 10.0 mi ENE 10.4 mph - N/A   Clear
5:52 PM 63.7 °F 49.3 °F 59% 30.12 in 10.0 mi NNE 8.1 mph - N/A   Clear
6:13 PM 62.4 °F 49.1 °F 62% 30.11 in 10.0 mi NE 9.2 mph - N/A   Clear
6:32 PM 60.8 °F 49.1 °F 65% 30.11 in 10.0 mi ENE 6.9 mph - N/A   Clear
6:52 PM 60.6 °F 50.4 °F 69% 30.11 in 10.0 mi ENE 4.6 mph - N/A   Clear
7:13 PM 59.9 °F 50.7 °F 72% 30.11 in 10.0 mi ENE 3.5 mph - N/A   Clear
7:32 PM 58.5 °F 50.7 °F 75% 30.11 in 10.0 mi Calm Calm - N/A   Clear
7:52 PM 57.7 °F 50.4 °F 76% 30.10 in 10.0 mi Calm Calm - N/A   Clear
8:13 PM 55.6 °F 50.0 °F 81% 30.10 in 10.0 mi Calm Calm - N/A   Clear
8:32 PM 55.0 °F 50.5 °F 85% 30.10 in 10.0 mi Calm Calm - N/A   Clear
8:52 PM 51.6 °F 48.6 °F 89% 30.11 in 10.0 mi Calm Calm - N/A   Clear
9:12 PM 51.4 °F 49.3 °F 92% 30.11 in 10.0 mi Calm Calm - N/A   Clear
9:32 PM 51.8 °F 49.8 °F 93% 30.12 in 10.0 mi Calm Calm - N/A   Clear
9:53 PM 50.7 °F 48.9 °F 94% 30.11 in 10.0 mi Calm Calm - N/A   Clear
10:12 PM 50.0 °F 48.2 °F 94% 30.11 in 10.0 mi Calm Calm - N/A   Clear
10:32 PM 48.7 °F 47.3 °F 95% 30.11 in 10.0 mi Calm Calm - N/A   Clear
10:53 PM 47.5 °F 46.2 °F 95% 30.11 in 10.0 mi Calm Calm - N/A   Clear
11:12 PM 47.3 °F 46.0 °F 95% 30.10 in 7.0 mi Calm Calm - N/A   Clear
11:32 PM 47.3 °F 46.4 °F 97% 30.10 in 10.0 mi Calm Calm - N/A   Clear
11:52 PM 46.4 °F 45.5 °F 97% 30.10 in - Calm Calm - N/A   Unknown